User: anonymous   Login
Location: Unspecified
(0.0000°N, 0.0000°E)
Time: 00:12:30
(UTC+00:00)
Language:

CANX 3B (BRITE-ASRA) - Orbit

View from above orbital plane
View from above orbital plane
View from above satellite
View from above satellite

Ground track
Ground track

The orbit data is extracted from the following two-line orbital elements,

1 39091U 13009F   17289.49666788  .00000022  00000-0  23066-4 0  9991
2 39091  98.5386 133.0839 0009701 312.9250  47.1120 14.35044609242895
Epoch (UTC): 16 October 2017 11:55:12
Eccentricity: 0.0009701
inclination: 98.5386°
perigee height: 768 km
apogee height: 782 km
right ascension of ascending node: 133.0839°
argument of perigee: 312.9250°
revolutions per day: 14.35044609
mean anomaly at epoch: 47.1120°
orbit number at epoch: 24289

The dashed part of the orbit path shows where the satellite is in the earth's shadow,  

DLR